Temp
8 8 8 7 8 8 7 7 7 7 7 7 7 7 7 7 7 7 7 7 8 7 7 7 7 8 7 7 8 7 8 10 12 11 11 17 20 21 21 21 21 20 19 19 19 19 18 18 19 18 20 20 20 20 20 21 21 21 22 21 21 21 22 23 24 23 23 25 25 24 23 24 25 24 23 23 23 22 21 21 21 21 21 21 21 21 21 20
7 8 7 7 7 7 7 7 7 7 7 7 7 7 7 7 7 7 7 7 7 7 7 7 7 8 7 7 7 7 9 10 10 11 15 20 21 21 21 21 21 20 19 18 19 19 19 19 18 19 20 20 19 20 20 20 21 21 20 21 22 22 22 23 23 23 23 24 25 24 23 23 25 25 24 24 23 22 23 22 21 22 21 20 20 20 20 20
7 7 7 7 7 7 7 7 7 7 7 7 7 7 7 7 7 7 7 7 7 7 7 7 7 7 7 7 7 8 9 9 12 16 20 21 21 21 21 20 20 20 19 19 20 20 21 19 18 19 20 20 20 20 20 21 21 21 20 21 22 22 22 22 22 23 23 23 24 24 23 24 25 24 25 25 23 23 24 23 23 23 22 20 19 20 20 19
7 7 7 7 7 7 7 7 7 7 7 7 7 7 7 7 7 7 7 7 7 7 7 7 7 7 7 7 8 9 8 11 18 20 20 20 20 21 20 20 19 19 19 20 20 20 21 19 19 20 20 20 19 20 21 21 21 21 21 22 22 21 22 23 23 23 23 22 23 24 24 25 25 23 24 25 25 25 25 24 25 25 24 20 19 20 20 20
7 7 7 7 7 7 7 7 7 7 7 7 7 7 7 7 7 7 7 7 7 7 7 7 7 7 7 7 8 9 10 16 21 19 19 19 20 20 21 21 19 19 19 19 19 20 20 19 19 20 20 20 19 20 21 21 21 21 21 22 22 21 22 24 23 23 22 22 23 23 24 25 25 24 23 24 27 28 26 25 24 25 24 20 19 20 20 20
7 7 7 7 7 7 7 7 7 7 7 7 7 7 7 7 7 7 7 7 7 7 7 7 7 7 7 8 9 10 13 20 20 19 20 20 20 20 21 21 18 18 19 19 19 19 19 19 20 20 20 20 20 21 21 20 21 22 21 21 22 22 22 24 23 23 22 22 23 24 24 24 25 26 23 23 27 27 24 24 24 23 22 21 20 19 19 19
7 7 6 7 6 7 7 7 7 7 7 7 7 7 7 7 7 7 7 7 7 7 7 7 7 7 7 8 9 10 13 18 19 19 20 20 20 20 20 20 18 18 18 19 18 19 19 19 20 20 20 20 20 21 21 20 21 21 22 21 22 22 22 23 23 23 22 22 23 23 23 23 25 26 23 24 27 23 21 22 23 22 21 21 20 19 19 19
6 6 6 6 6 7 7 7 7 7 7 7 7 7 7 6 7 7 7 7 6 6 7 7 7 7 7 8 10 11 12 16 19 20 20 20 20 19 20 19 17 18 18 19 19 19 19 19 20 19 21 21 20 20 20 21 21 21 22 22 22 22 22 23 23 23 22 22 22 22 23 23 24 25 25 27 25 21 21 22 21 21 21 20 20 19 19 19
6 6 6 6 6 6 6 7 7 7 7 6 7 7 7 6 6 7 6 6 6 6 7 7 7 7 7 7 9 13 15 17 19 19 19 19 19 18 19 18 17 17 18 19 19 19 19 20 20 20 21 21 20 20 20 21 22 21 22 22 23 23 23 23 23 23 23 22 22 23 24 24 22 23 25 25 22 20 21 22 21 21 21 20 20 19 19 19
6 6 6 6 6 6 6 7 6 7 7 7 7 6 6 6 6 7 6 6 6 6 6 7 7 7 7 7 10 14 17 18 18 18 19 18 18 17 18 18 17 17 18 18 18 19 20 20 20 20 21 20 20 20 20 22 22 22 22 22 23 23 23 23 24 23 22 22 23 24 25 24 22 24 26 23 20 20 21 21 21 21 21 21 20 20 20 20
6 6 6 6 6 6 6 6 6 6 7 7 6 6 6 6 6 6 6 6 6 6 6 6 7 7 7 7 10 15 17 18 18 18 18 18 17 17 17 18 17 17 18 18 18 19 20 20 20 20 21 21 20 20 21 22 22 22 22 23 22 22 22 22 24 23 22 24 23 23 25 24 23 25 27 22 19 21 21 21 20 21 21 21 21 20 20 20
6 6 6 6 6 6 6 6 6 6 6 6 6 6 6 6 6 6 6 6 6 6 6 6 7 7 7 7 9 15 17 17 17 18 17 17 17 16 16 17 17 18 19 18 19 19 20 20 20 21 21 21 21 21 21 22 22 22 22 23 23 23 24 24 24 22 22 24 23 23 25 25 25 26 25 21 19 20 20 20 20 21 21 21 21 20 20 21
6 6 6 6 6 6 6 6 6 6 6 6 6 6 6 6 6 6 6 6 6 6 6 6 7 7 7 8 11 16 18 17 17 17 17 17 16 17 17 16 17 18 19 19 19 19 20 20 21 21 20 21 21 21 21 21 21 22 22 23 24 23 24 24 23 21 23 24 23 24 24 24 26 25 23 20 20 20 20 20 20 21 21 20 20 20 20 20
6 6 6 6 6 6 6 6 6 6 6 6 6 6 6 6 6 6 6 6 6 6 6 6 7 7 7 8 13 17 17 17 16 17 17 17 16 17 17 17 17 17 18 19 19 19 20 19 20 21 20 21 21 21 21 21 21 22 22 22 22 22 23 24 22 22 24 23 22 25 23 23 25 23 21 20 20 20 20 20 20 20 20 20 20 20 20 21
6 6 6 6 6 6 6 6 6 6 6 6 6 6 6 5 5 6 6 6 6 6 6 6 7 7 7 9 14 16 16 16 16 18 18 17 17 17 17 17 17 17 18 18 19 19 19 19 20 21 20 20 21 21 21 21 21 21 22 21 21 21 23 24 22 22 25 23 22 24 23 23 24 21 20 20 20 20 20 20 20 20 20 20 20 20 20 21
6 6 6 6 6 6 6 6 6 6 6 6 6 6 5 5 5 5 5 5 6 6 6 7 8 7 8 12 15 16 15 15 17 19 18 18 18 18 17 17 17 16 17 18 18 19 18 19 20 20 20 21 21 22 21 21 21 20 21 21 21 21 22 23 23 21 23 24 24 24 24 23 22 20 20 20 19 20 20 21 20 20 20 20 20 20 20 21
6 6 6 6 6 6 6 6 6 6 6 6 6 5 5 6 6 5 5 5 6 6 6 8 8 7 10 14 16 16 16 16 17 18 18 18 18 18 17 17 16 16 17 18 18 18 18 19 19 19 20 20 20 21 21 20 20 20 21 21 20 21 21 22 24 22 22 24 25 24 24 22 20 20 19 19 19 19 20 21 20 20 20 20 19 20 20 20
5 6 6 6 6 6 6 6 6 6 5 6 5 5 6 6 6 6 6 6 6 7 7 7 8 9 13 15 15 16 17 17 18 18 17 17 17 18 18 17 16 17 17 18 18 18 18 18 19 19 20 19 20 21 21 20 21 20 21 21 20 20 21 22 23 23 23 25 25 24 23 20 19 19 19 18 18 19 20 20 20 20 20 20 20 19 20 20
5 6 6 5 6 6 6 5 5 6 5 5 5 5 6 6 6 6 6 6 7 9 10 9 9 13 15 14 15 16 16 17 17 17 17 16 17 18 18 17 17 17 18 18 18 18 18 18 18 19 19 19 20 21 21 21 22 22 21 22 21 21 21 22 23 22 22 24 23 22 21 19 19 18 18 18 18 18 18 19 20 20 20 21 20 20 20 20
6 6 5 5 6 5 5 5 5 5 5 5 5 5 7 7 8 8 7 6 8 10 11 10 10 13 15 14 14 15 17 18 17 17 17 16 17 18 18 18 17 18 18 18 18 18 18 19 18 19 19 19 20 21 22 21 22 22 21 21 21 21 22 22 23 21 21 22 19 19 19 18 18 17 17 18 17 17 17 18 18 19 20 20 20 20 20 20
6 6 5 5 5 5 5 5 5 5 5 5 5 5 7 8 9 9 8 8 8 9 9 9 10 12 14 14 14 15 16 16 17 17 17 17 18 19 18 18 18 18 18 18 18 18 18 18 18 19 20 20 19 19 21 20 21 21 21 21 20 21 22 23 22 20 21 21 19 19 19 18 18 18 17 18 17 16 16 17 17 18 18 18 18 19 19 20
5 6 5 5 5 5 5 5 5 5 5 5 4 5 6 7 8 8 8 9 10 10 9 9 10 11 12 13 13 14 14 15 17 18 17 17 19 19 19 18 18 18 17 17 18 18 18 18 19 19 18 19 18 18 20 20 20 21 21 21 21 21 21 21 20 20 21 21 19 19 19 18 18 18 17 17 17 17 17 17 17 17 17 17 17 17 18 19
5 5 5 5 5 5 5 5 5 5 5 5 5 5 6 7 8 8 8 9 10 10 10 10 10 10 11 12 13 13 14 14 16 17 17 17 18 19 19 18 18 18 17 18 19 18 17 19 19 18 17 19 18 17 19 20 20 21 21 21 21 20 21 21 20 19 20 20 20 20 20 19 18 18 18 17 17 18 18 17 17 17 16 16 16 16 17 17
5 5 5 5 5 5 5 5 5 5 5 5 4 5 7 8 7 7 8 9 10 11 11 11 11 11 12 13 14 14 14 15 15 17 18 18 18 18 19 18 18 18 17 18 19 19 19 19 19 17 18 19 18 17 19 20 20 20 20 21 21 20 22 22 20 20 20 19 20 21 21 20 19 18 18 18 18 18 18 17 17 17 16 16 16 16 16 16
5 5 5 5 5 5 5 5 5 5 5 5 5 6 7 7 7 7 8 10 11 11 12 12 12 12 14 14 14 15 15 15 16 17 18 18 19 18 18 18 18 18 17 18 18 19 19 18 18 17 18 19 19 18 19 21 20 19 20 21 22 22 22 21 20 21 20 20 20 20 21 20 19 18 18 18 18 17 18 17 16 16 16 16 16 15 16 16
5 5 5 5 5 5 5 5 5 4 5 5 6 6 6 7 7 6 8 11 12 13 13 13 13 15 15 14 14 16 15 16 17 17 18 19 20 19 18 18 19 18 17 17 18 19 19 17 18 19 18 18 19 19 19 20 20 20 20 21 21 22 22 21 21 21 21 20 19 19 20 20 19 19 17 18 18 17 17 17 16 16 15 15 15 15 15 15
5 5 5 5 5 5 5 5 5 4 5 6 6 6 6 7 6 6 9 11 13 14 14 13 14 16 16 15 15 16 16 17 17 17 18 19 20 20 19 18 18 18 17 18 19 19 18 17 18 18 18 19 19 19 18 19 21 20 20 20 20 22 22 21 22 21 20 20 19 19 21 20 20 19 18 18 18 17 17 17 16 15 15 15 14 14 14 14
5 5 5 5 5 5 5 5 5 5 6 6 6 6 7 7 6 7 10 12 13 16 15 13 15 17 16 15 16 17 18 18 18 17 18 20 20 20 20 19 19 18 17 18 19 18 18 18 18 18 19 19 19 20 19 19 21 21 19 19 20 21 21 21 22 21 20 20 20 20 20 20 20 19 18 19 18 17 17 16 15 15 14 14 14 13 13 13
5 5 4 5 5 5 5 4 4 5 6 6 5 6 6 6 7 9 11 12 15 17 16 16 16 16 15 15 16 18 18 18 18 18 18 19 20 20 19 19 19 19 18 19 19 18 18 19 19 19 19 19 20 20 19 20 21 19 18 19 20 20 19 20 21 21 19 20 21 20 19 20 19 18 19 19 18 17 16 16 15 14 14 13 13 13 12 12
4 4 4 5 4 4 4 4 5 5 6 5 5 6 6 6 9 10 10 12 15 16 16 16 16 15 15 14 15 17 18 18 18 18 18 19 19 19 19 18 19 19 18 19 20 19 18 19 19 19 20 20 20 18 18 20 20 18 18 19 20 19 19 19 20 20 20 20 20 18 17 19 19 18 18 18 17 17 17 16 15 14 13 13 12 12 12 12
4 4 4 4 4 4 4 4 5 5 5 4 5 6 7 8 10 11 11 13 14 15 16 15 15 15 15 15 15 16 17 18 18 18 18 19 19 19 18 18 19 19 18 18 19 18 18 18 19 19 20 20 19 18 18 19 19 19 20 20 20 20 20 20 20 20 20 20 19 17 16 19 20 18 17 17 17 17 16 16 14 13 13 12 12 12 11 11
4 4 4 4 4 4 4 5 5 5 4 5 5 6 8 10 10 10 12 14 13 14 15 15 15 15 15 16 16 16 17 18 18 19 18 19 19 18 19 19 18 18 17 18 18 18 18 19 19 19 19 20 20 18 17 18 18 20 21 20 20 20 20 20 20 20 20 20 18 16 17 19 19 17 17 17 16 16 15 15 14 13 12 11 11 11 11 11
4 4 4 4 4 4 4 5 5 5 4 5 5 6 9 10 10 11 13 14 13 12 14 15 15 16 15 16 16 17 18 18 18 19 19 19 19 18 18 18 19 19 17 17 18 18 18 19 19 19 19 20 21 19 18 18 19 20 21 20 20 20 19 19 18 19 19 19 17 16 18 19 17 17 17 16 15 15 14 14 13 12 11 11 11 11 11 11
4 4 4 4 4 4 5 5 5 4 4 4 6 8 10 10 11 12 13 13 12 12 13 14 15 16 16 16 17 17 18 18 18 19 18 18 18 18 18 18 19 19 18 17 17 18 18 18 19 20 20 20 21 21 20 19 19 20 21 21 21 20 20 19 19 20 19 19 18 17 18 18 17 16 16 15 15 15 14 13 13 12 11 11 11 11 11 10
4 4 4 4 4 4 5 5 4 4 4 5 8 9 10 10 11 12 12 13 12 11 13 14 14 15 16 17 17 18 18 18 18 18 18 18 18 18 18 18 18 19 18 17 17 18 18 19 20 20 19 20 21 21 20 20 19 19 19 20 20 21 20 18 17 18 19 19 18 16 16 16 16 15 15 15 15 15 14 13 12 12 11 11 11 11 10 10
4 4 4 4 4 5 6 5 4 4 4 7 9 9 10 11 12 12 12 12 12 11 12 14 15 16 16 17 17 18 18 18 18 18 18 18 18 18 18 19 18 19 19 18 17 17 18 19 19 18 19 20 21 21 20 20 20 18 19 20 19 20 20 18 16 16 18 20 17 14 15 16 16 16 15 15 14 14 14 13 12 11 11 11 10 10 10 10
4 5 5 5 5 6 6 4 4 4 5 8 10 10 11 12 13 13 12 12 12 11 11 13 15 16 16 17 17 18 18 18 18 18 17 17 18 18 18 19 18 19 20 20 18 18 19 19 18 18 20 19 19 21 20 20 20 19 19 20 19 19 20 20 19 17 18 19 15 14 16 16 16 16 15 14 14 14 13 13 12 11 11 10 10 10 10 9
4 5 6 6 6 6 5 4 4 5 7 9 10 11 12 13 13 13 12 12 12 12 11 12 14 15 16 17 17 18 19 18 17 17 17 17 17 18 18 19 18 19 20 20 19 18 18 20 19 18 19 19 19 20 20 20 20 20 21 20 20 20 20 19 19 19 19 17 14 15 16 16 17 17 16 15 14 14 13 13 12 11 10 10 10 10 9 9
4 5 6 6 6 6 5 4 5 6 9 10 10 11 12 13 14 14 12 12 13 12 11 12 13 15 16 17 17 18 19 18 17 17 17 17 17 17 18 18 19 19 20 20 20 17 17 19 19 18 18 18 19 20 20 20 19 20 21 20 20 20 20 20 19 20 19 16 15 16 15 16 17 16 16 16 14 14 13 12 11 10 10 9 9 9 9 9
5 6 7 6 5 5 5 5 7 9 10 10 10 11 12 13 14 14 13 12 13 12 11 11 13 14 15 17 18 18 18 18 18 17 17 17 17 17 18 18 19 19 18 19 19 18 18 19 19 18 18 18 19 19 19 20 20 20 20 20 19 19 19 20 19 18 18 17 16 16 15 16 16 15 16 16 14 13 13 11 11 10 9 9 9 8 8 8
5 7 7 5 5 5 5 7 9 10 10 10 11 11 12 13 13 14 14 13 12 13 12 12 13 13 14 16 17 18 17 17 17 17 17 17 17 17 18 18 19 19 18 19 19 18 19 18 18 18 18 18 18 16 16 18 19 20 21 21 20 19 20 20 18 17 17 17 17 17 16 16 14 13 14 14 13 12 12 11 10 9 9 9 8 8 8 8
6 7 7 5 5 5 6 9 9 9 10 11 11 12 13 13 13 13 14 13 12 13 13 13 13 13 14 15 17 18 17 16 17 17 17 17 17 17 17 17 18 19 19 19 18 17 17 18 17 17 17 17 16 15 15 16 16 18 19 18 19 20 21 21 20 18 17 16 17 17 17 15 12 11 12 12 11 11 11 10 10 9 9 8 8 8 8 8
6 7 6 5 5 5 7 10 9 9 11 11 12 13 13 13 13 13 13 13 12 13 13 13 13 14 15 15 17 18 17 16 16 16 16 16 16 16 16 15 16 18 19 19 18 17 17 17 17 17 17 17 17 16 15 15 16 18 17 14 16 18 19 20 20 19 17 16 17 18 18 15 11 10 10 10 10 10 10 10 9 8 8 8 8 8 7 7
6 6 6 5 5 6 8 10 10 10 11 11 12 13 13 13 13 12 12 12 13 13 13 14 15 15 16 16 17 18 18 17 16 16 16 16 16 16 15 15 16 18 19 18 19 19 18 17 17 17 17 17 17 17 17 17 16 15 14 13 13 15 17 18 18 19 18 16 17 19 18 14 11 10 10 10 9 9 9 9 9 8 8 7 7 7 7 7
5 7 7 6 5 6 8 9 10 10 11 11 12 12 12 13 13 13 12 12 13 14 13 13 14 15 15 17 17 17 18 18 17 16 16 16 16 16 15 15 16 17 17 17 19 19 16 13 15 18 18 17 18 17 17 17 16 13 12 12 12 13 15 18 19 20 19 15 16 19 17 12 10 10 10 9 9 9 8 8 8 8 7 7 7 7 7 7
6 8 7 7 7 7 8 9 9 10 11 11 11 11 11 11 12 13 13 13 13 14 13 13 13 14 16 17 17 17 17 18 18 17 16 16 16 16 16 16 16 16 16 15 16 16 13 11 12 15 16 16 16 14 14 14 14 14 13 12 12 10 12 16 20 20 19 16 15 16 14 11 11 10 10 9 9 8 8 8 8 7 7 7 7 7 7 7
7 8 7 8 8 8 8 9 9 10 11 11 11 11 11 11 12 13 13 14 14 13 12 12 12 15 17 17 17 16 16 17 17 17 16 16 16 16 16 16 16 16 16 15 14 14 14 12 12 12 12 13 12 12 12 13 13 13 12 12 12 11 12 17 19 17 17 18 17 14 12 12 11 10 9 9 8 8 8 7 7 7 7 7 7 7 7 6
7 8 8 8 9 9 9 10 10 10 11 11 11 11 11 12 11 12 13 14 14 13 12 12 13 14 16 17 17 16 16 16 16 16 16 16 16 16 16 16 16 16 16 15 14 14 14 12 11 11 11 11 12 12 12 12 12 12 12 12 12 12 13 15 14 12 14 18 17 13 12 12 10 9 9 9 8 8 7 7 7 7 7 7 6 6 6 6
7 7 8 9 9 9 10 10 10 10 10 11 11 11 11 11 12 12 13 14 14 13 12 13 14 14 15 16 17 16 16 17 16 16 16 16 16 16 16 16 16 16 16 15 14 14 13 12 11 12 11 11 12 12 12 12 12 11 11 12 12 12 12 13 12 12 13 14 14 12 11 10 9 9 8 8 7 7 7 7 7 6 6 6 6 6 6 6
7 8 8 9 9 9 9 10 10 10 10 11 11 11 11 11 13 13 13 13 14 14 12 12 13 14 14 15 16 16 15 16 17 16 16 16 16 16 17 17 16 16 16 15 14 14 13 12 12 12 12 11 11 12 12 12 11 11 11 11 11 12 12 12 12 12 12 12 11 10 10 9 8 8 7 7 7 7 6 6 6 6 6 6 6 6 6 6
6 6 7 8 9 10 10 10 10 10 11 11 11 11 12 13 14 14 13 13 13 14 13 13 14 14 14 15 15 14 14 15 17 16 15 16 16 15 16 16 16 17 16 15 14 14 14 12 11 13 13 11 11 11 12 12 12 11 10 10 10 11 11 11 10 11 11 11 10 10 10 9 8 7 7 7 6 6 6 6 5 5 6 6 6 5 5 6
5 6 7 8 9 10 10 10 10 10 11 11 11 12 12 14 14 14 15 15 14 13 13 14 15 14 14 14 14 13 13 14 14 13 13 14 14 13 13 14 15 16 16 14 13 13 13 12 12 13 13 11 11 11 11 12 15 14 11 9 10 10 10 10 10 10 11 11 11 11 10 8 7 7 6 6 6 5 5 5 5 5 5 5 6 5 5 6
Height
809 809 808 808 807 807 806 806 805 804 804 803 803 802 801 801 800 799 798 797 796 795 794 793 792 791 789 788 787 785 783 781 779 778 772 766 768 770 770 771 772 773 774 775 776 778 781 782 783 783 783 785 787 788 789 788 789 791 798 806 807 807 803 797 796 794 793 790 787 787 787 787 784 782 779 778 780 783 783 782 779 778 778 778 778 778 778 781
808 808 807 807 806 806 805 805 804 804 803 803 802 801 801 800 799 798 797 796 795 794 793 792 792 790 789 788 786 785 782 780 779 773 765 764 767 767 768 770 771 772 773 774 775 776 779 782 782 783 783 786 789 788 790 789 789 794 802 805 802 801 797 792 792 792 792 790 788 787 788 787 783 781 779 782 787 786 785 784 781 781 780 780 779 780 781 782
807 807 806 806 805 805 804 804 803 803 802 802 801 800 800 799 798 798 796 796 795 794 793 792 791 790 788 787 786 784 782 781 777 767 761 763 765 764 766 767 769 771 772 774 774 775 777 779 781 783 784 787 789 789 790 790 790 793 799 803 797 794 793 791 792 791 790 790 790 788 786 785 782 780 779 783 788 786 785 783 781 782 781 781 781 781 782 783
807 806 805 805 804 804 803 803 803 802 801 801 800 800 799 798 798 797 796 795 794 793 792 791 790 789 788 787 785 783 783 780 770 761 761 762 762 763 763 764 767 769 772 773 775 775 776 778 781 782 784 788 790 790 790 789 791 793 795 797 793 793 793 789 788 788 788 790 791 788 785 783 780 781 781 781 786 786 782 778 776 776 776 780 781 781 782 783
806 805 805 804 803 803 802 802 802 801 801 800 799 799 798 797 797 796 795 794 793 792 791 791 789 789 788 786 785 783 783 777 763 759 761 761 761 762 762 762 764 768 771 773 774 775 776 778 781 783 785 789 791 790 790 788 789 793 793 791 789 793 793 785 785 787 788 790 789 788 786 782 779 780 781 780 781 780 776 772 771 771 772 777 779 780 782 783
805 804 804 803 803 802 801 801 800 800 800 799 798 798 797 797 796 795 794 793 792 791 791 790 789 788 787 785 784 783 782 771 759 759 760 759 760 761 761 761 763 767 770 772 773 775 776 778 781 784 785 788 791 788 788 788 788 791 792 791 788 789 790 785 785 786 786 788 788 787 785 783 782 781 782 782 777 774 772 769 769 770 772 776 778 780 781 782
804 803 803 802 802 801 800 800 799 799 798 798 798 797 796 795 795 794 793 792 792 790 790 789 788 788 786 785 783 783 783 768 757 760 759 759 760 760 761 761 762 766 769 770 772 773 775 778 780 783 785 788 790 787 786 787 788 791 792 790 787 787 788 786 784 784 786 787 785 785 784 785 784 782 783 781 775 773 772 769 769 771 773 776 779 780 781 782
803 802 801 801 800 800 799 799 798 798 797 797 796 796 795 794 794 793 792 791 790 790 789 788 788 787 786 785 783 784 782 766 756 760 760 759 759 759 760 761 763 765 767 769 769 771 774 777 779 781 784 785 786 786 787 787 789 791 790 787 785 785 785 784 784 783 785 784 783 784 784 785 783 781 782 778 774 775 772 770 771 772 774 777 779 780 781 783
802 801 800 800 799 799 798 797 797 796 796 795 795 795 794 793 793 792 791 790 789 789 788 788 788 787 786 785 784 782 773 761 759 760 759 758 758 758 759 760 763 765 767 769 769 771 773 775 776 777 780 782 784 785 786 788 789 787 786 786 784 784 783 783 783 781 783 783 782 782 782 783 783 782 781 778 777 776 774 773 773 774 776 777 778 780 782 783
800 800 799 799 798 797 796 796 795 794 794 794 793 793 793 792 791 790 790 789 788 788 788 788 787 787 787 785 785 778 764 758 760 759 758 758 758 758 759 759 762 764 766 768 769 770 770 771 773 774 776 781 783 784 785 785 784 782 783 784 783 783 783 783 782 781 782 781 780 780 780 781 781 782 781 780 779 778 776 776 775 776 777 777 778 780 782 784
799 798 798 797 796 796 795 794 794 793 793 792 792 792 791 791 790 789 789 788 787 787 787 787 786 787 786 786 784 773 760 759 760 759 758 758 758 759 760 760 761 763 765 767 769 768 769 770 772 774 776 779 781 784 784 780 779 780 782 783 783 784 784 783 781 781 782 779 778 779 779 780 780 780 779 780 781 779 778 779 778 778 778 778 779 781 782 783
798 797 796 796 795 794 793 793 792 792 791 791 791 790 790 789 788 788 787 787 786 786 786 786 786 786 785 787 781 766 759 760 759 759 759 759 760 760 760 762 762 763 764 765 768 768 770 771 771 774 776 776 780 785 781 777 778 780 781 783 784 783 782 780 779 781 781 778 776 777 780 782 781 780 778 780 780 780 781 781 780 779 779 779 780 781 782 783
796 795 795 794 793 793 792 791 791 790 790 789 789 788 788 787 787 786 785 786 785 785 785 785 786 785 787 784 770 759 759 759 759 758 758 759 761 761 762 763 764 766 765 765 768 769 771 771 771 773 775 776 779 781 778 778 780 781 782 783 784 785 784 779 780 782 780 779 775 777 786 786 781 781 781 783 782 781 783 783 782 780 780 781 781 781 782 782
794 794 793 792 792 791 791 790 789 789 788 788 787 787 786 785 785 784 784 784 784 785 784 784 785 785 787 777 760 756 758 758 757 756 756 758 760 762 763 764 765 767 768 768 769 770 771 772 772 773 774 775 777 778 779 782 783 782 784 787 789 792 786 778 780 782 778 779 776 777 789 789 784 786 786 785 785 784 785 784 783 782 781 782 782 782 782 781
793 792 792 791 790 790 789 789 788 787 787 786 785 785 784 783 783 782 783 782 783 783 782 784 784 784 787 773 756 754 755 755 754 751 753 756 759 761 762 763 766 767 768 769 770 771 772 772 773 775 775 774 775 779 783 785 786 786 788 793 795 793 787 780 781 782 778 779 778 780 789 789 788 791 789 786 787 787 788 787 785 784 784 784 783 783 783 782
792 791 790 790 789 788 788 787 787 786 785 784 784 783 781 780 780 780 780 780 781 782 782 784 782 785 783 766 754 753 752 752 750 748 752 754 756 759 761 763 765 767 769 770 771 771 772 773 774 775 775 776 777 780 785 788 790 790 790 794 797 792 789 785 780 781 780 779 779 781 786 792 794 793 791 789 789 790 790 788 788 788 787 787 786 786 785 784
791 790 789 788 788 787 786 786 785 785 784 783 782 781 779 777 776 775 776 779 780 780 782 781 782 785 775 756 752 753 749 749 748 748 750 751 755 757 759 763 765 767 769 771 772 772 773 774 776 776 776 779 780 780 788 796 795 794 792 794 798 794 791 789 782 781 780 779 780 781 788 799 801 797 794 793 792 792 791 789 789 789 789 789 789 789 788 786
789 788 787 787 786 786 785 785 784 783 783 782 780 779 777 775 773 773 775 777 779 781 783 782 783 780 763 751 752 750 748 748 748 748 748 750 755 757 758 761 764 767 770 772 773 773 775 776 777 779 780 783 783 780 789 795 791 792 792 791 797 797 793 791 785 783 780 779 782 784 793 804 804 800 799 798 795 794 793 791 790 789 789 790 790 790 790 789
788 787 786 785 785 784 784 784 783 782 781 780 779 777 775 775 774 774 775 776 777 777 774 774 774 765 753 750 751 748 748 747 747 747 748 750 753 756 758 760 763 766 770 773 775 774 775 778 781 782 782 783 782 779 781 784 781 785 788 787 790 791 791 790 785 785 783 784 791 793 799 806 806 805 803 801 799 797 797 794 792 791 789 790 791 791 791 792
786 785 784 784 783 783 783 782 782 781 781 780 779 777 775 774 773 774 777 776 770 764 761 763 762 755 750 751 750 749 747 745 746 746 746 748 751 755 758 760 763 766 768 771 774 774 773 779 781 779 779 780 780 779 777 779 779 782 787 788 790 788 787 786 785 787 785 791 805 804 803 809 809 809 807 803 803 802 801 800 797 795 793 793 793 793 793 794
784 783 783 782 782 782 781 781 780 780 779 779 779 778 775 772 770 770 773 771 763 760 760 759 759 754 749 750 750 750 750 747 745 745 746 747 748 753 757 759 765 769 770 770 772 773 773 779 779 774 775 776 779 781 779 782 782 782 785 789 794 791 785 784 787 790 784 792 810 806 804 812 812 811 810 806 806 807 807 806 803 800 798 798 798 796 795 794
783 782 781 781 780 780 780 779 779 778 778 778 779 778 775 771 770 769 770 767 759 757 758 757 759 756 748 749 751 752 755 753 746 743 745 747 748 751 755 759 764 768 771 771 772 776 778 778 775 773 776 777 783 785 781 782 784 783 786 788 791 790 788 787 790 791 785 792 808 805 806 816 815 811 811 809 809 809 808 807 806 804 804 804 803 801 799 797
781 780 780 779 779 779 778 778 777 777 777 776 776 776 773 770 770 770 770 768 758 752 752 753 754 752 747 748 750 753 755 754 749 744 743 746 747 748 752 758 763 766 771 770 769 777 781 775 771 775 777 778 785 788 782 783 786 785 786 787 789 792 789 787 793 795 790 793 801 800 804 813 813 811 811 810 809 808 807 807 806 806 807 807 806 805 803 802
779 778 778 777 777 777 776 776 775 775 774 774 773 772 770 770 770 770 769 766 757 748 745 745 746 745 743 743 745 749 751 750 748 743 740 744 746 746 750 755 761 766 768 767 766 771 773 768 769 776 776 774 782 788 783 783 788 789 787 784 786 790 785 785 793 795 794 797 796 794 800 810 813 814 814 810 809 809 807 808 809 809 808 808 807 807 807 807
777 777 776 776 776 775 775 774 772 773 772 772 771 769 769 770 769 770 769 763 754 746 740 740 742 739 735 740 743 744 747 747 743 739 738 740 742 745 750 752 757 765 767 768 768 768 768 767 769 775 777 775 779 785 782 779 786 792 788 781 781 782 781 787 792 791 797 805 800 794 803 813 814 815 818 814 812 813 810 811 813 813 812 811 811 811 811 811
775 775 774 775 774 773 774 772 771 772 771 770 769 768 769 769 768 770 767 761 749 739 736 737 736 730 728 737 740 740 747 743 734 735 737 737 738 740 749 753 754 761 765 767 767 766 768 769 768 771 776 777 778 781 780 777 783 790 783 778 780 780 781 787 788 788 797 803 802 797 801 813 816 815 819 816 814 816 813 815 818 816 817 816 816 817 815 815
773 773 773 773 773 773 773 771 771 771 769 768 767 768 769 767 769 768 763 760 746 729 730 736 731 723 723 729 731 737 744 736 730 734 734 735 737 736 745 753 754 759 762 764 768 767 767 771 771 771 774 777 777 778 779 777 781 785 778 777 782 781 781 785 785 787 793 797 802 800 795 806 816 816 818 816 815 819 817 819 821 820 821 820 820 821 820 820
771 771 771 771 771 772 771 771 770 769 767 766 766 768 767 766 768 766 761 757 738 718 722 730 726 721 722 726 727 729 730 727 729 734 730 732 736 735 743 750 750 756 758 761 768 766 764 768 771 771 773 776 773 772 776 777 778 779 777 779 780 779 781 783 782 787 796 797 799 800 796 804 818 817 814 813 814 820 822 822 824 824 824 824 824 825 824 823
770 770 770 770 770 769 770 769 768 766 765 765 766 766 765 766 766 763 761 749 726 713 716 720 721 723 725 729 728 725 724 725 727 728 728 732 734 734 742 745 745 753 756 756 761 763 762 761 761 765 769 770 768 769 772 772 774 776 780 782 782 784 787 787 786 787 797 799 795 801 802 805 819 820 812 814 818 822 824 823 825 826 827 827 827 828 827 826
768 768 768 768 768 767 768 767 764 763 764 765 766 764 764 766 761 761 763 746 722 716 716 717 721 723 726 730 732 728 725 725 725 726 730 733 733 734 739 743 744 751 758 756 757 761 760 758 758 760 762 761 764 770 771 769 771 775 779 782 784 789 790 790 791 789 795 799 796 808 812 803 815 824 817 818 822 821 821 823 826 827 829 830 830 831 830 829
766 766 766 766 766 766 766 764 761 761 764 765 764 764 764 762 758 759 756 736 723 722 718 721 723 722 725 727 729 730 728 727 725 727 732 733 736 739 740 745 748 753 761 761 760 762 762 761 761 758 756 758 763 772 775 772 773 774 776 780 786 791 791 792 795 795 800 802 800 812 815 801 809 824 823 821 821 820 821 825 829 831 832 833 833 834 833 832
764 764 764 764 764 764 763 762 760 761 763 763 764 764 760 758 759 757 743 727 729 730 722 723 723 722 725 723 724 728 726 727 726 725 730 733 737 740 740 744 748 756 766 765 763 766 763 760 759 756 756 756 761 772 779 777 775 774 774 779 787 795 801 801 801 801 801 800 805 813 811 806 814 821 820 820 821 823 825 828 832 834 836 837 837 836 836 834
762 762 762 762 762 761 759 760 760 762 762 763 765 762 756 757 756 747 734 728 735 735 726 724 722 721 725 723 723 725 722 726 727 725 728 730 736 740 741 742 741 749 761 763 765 768 766 761 758 758 758 752 754 767 777 779 776 774 773 775 782 794 806 812 811 810 804 803 810 812 807 812 822 822 818 821 823 825 828 831 833 836 838 839 840 838 838 837
760 759 759 759 758 757 756 758 759 761 763 763 763 759 756 758 751 738 733 732 735 737 729 725 723 720 721 721 720 720 723 727 725 725 729 731 737 742 743 744 741 742 753 762 765 765 768 768 757 755 756 751 751 756 762 769 772 771 769 768 775 782 792 804 806 803 803 804 808 810 811 817 822 822 820 821 824 825 828 833 834 837 839 840 841 840 839 840
758 756 756 755 754 753 753 755 757 760 763 762 759 758 756 754 745 737 736 735 737 739 731 725 724 722 721 720 718 716 718 725 726 726 730 732 736 740 740 741 741 741 748 760 765 763 766 764 749 748 751 747 749 750 751 761 772 775 771 771 775 770 776 800 808 803 802 804 811 819 823 823 822 823 822 822 826 826 829 834 836 839 841 841 842 842 842 842
755 754 753 751 749 749 749 752 755 758 762 758 754 756 753 745 739 737 738 736 737 740 733 724 720 721 722 720 719 717 715 720 725 728 732 733 734 737 737 736 737 739 741 751 761 763 764 760 749 750 751 745 745 747 749 755 766 776 775 773 773 766 770 794 811 814 804 802 821 834 831 826 824 824 824 825 828 829 831 835 837 840 842 843 844 844 844 844
753 752 750 748 747 747 748 749 752 757 759 754 751 752 746 738 735 735 736 737 738 740 739 731 721 719 722 719 719 718 715 720 725 728 734 736 735 736 735 734 734 735 734 740 751 756 756 755 752 751 750 748 745 745 749 750 755 769 772 767 768 771 773 780 797 812 805 806 830 837 828 825 824 825 826 827 830 832 833 834 837 840 842 844 845 845 846 846
752 750 748 746 745 745 746 748 751 755 754 750 748 746 741 736 733 732 735 737 738 740 743 739 728 719 718 718 718 714 713 721 726 728 734 736 735 733 732 733 734 732 730 732 742 749 750 753 756 751 749 751 747 747 755 755 751 755 757 757 764 773 777 780 792 802 804 820 837 833 828 826 820 821 824 826 830 832 833 834 836 841 843 845 846 846 846 847
750 749 746 744 744 744 745 747 750 752 750 748 748 744 738 735 731 730 733 735 736 740 744 741 732 724 718 715 716 713 713 719 724 728 733 735 735 732 729 731 732 732 730 729 737 747 749 753 757 753 750 751 749 750 758 759 756 753 753 757 762 766 770 777 785 785 794 822 833 830 834 828 817 819 819 821 828 829 831 836 839 843 846 846 847 848 848 849
749 748 745 743 744 744 745 748 750 749 746 745 746 742 736 733 730 729 731 734 736 738 742 741 734 729 722 715 713 713 715 718 721 727 731 732 734 733 730 729 729 731 733 732 737 745 747 750 756 755 752 753 754 756 756 755 756 756 758 762 766 770 770 774 785 788 792 812 823 827 833 823 816 822 818 819 828 829 831 837 841 845 847 847 849 850 851 851
748 746 744 744 745 745 746 748 748 746 745 745 743 740 735 732 731 729 730 735 738 736 737 738 735 732 728 722 714 711 716 721 722 726 730 730 732 733 729 726 726 729 735 737 738 742 744 748 755 758 757 758 761 763 760 755 754 753 753 756 761 767 768 773 791 798 794 801 809 815 820 820 824 828 823 824 830 832 835 838 842 847 847 849 851 852 853 853
748 745 744 745 746 746 746 745 745 745 743 742 740 736 733 731 730 731 731 735 737 735 735 734 731 729 728 724 716 709 716 724 724 725 728 728 730 730 727 727 726 725 730 737 738 740 743 748 757 762 763 763 765 764 762 761 760 754 755 762 763 759 758 765 781 793 798 803 803 804 811 821 832 833 830 832 834 835 839 841 845 850 850 852 854 854 855 855
747 745 745 746 747 747 746 744 745 745 742 739 735 732 731 731 732 734 734 735 736 734 733 730 727 724 721 718 714 710 714 723 727 726 726 729 730 729 728 728 728 726 727 735 739 740 743 750 759 764 763 761 760 762 763 762 761 759 766 776 774 766 764 764 768 778 793 803 801 799 809 823 834 837 836 837 838 840 843 844 847 851 852 854 856 856 857 856
747 746 746 748 748 748 746 743 744 744 740 737 735 732 731 731 733 735 735 735 733 731 730 727 720 717 715 711 710 709 709 720 729 727 726 729 729 727 728 727 727 726 727 731 732 732 742 754 759 761 767 768 765 764 762 760 765 774 781 785 784 779 773 769 771 774 786 802 797 789 803 823 834 838 839 840 842 844 847 848 849 852 854 856 857 858 858 857
747 745 746 749 750 749 746 742 742 742 739 737 736 734 734 733 732 732 733 732 729 727 728 725 718 716 713 707 707 708 706 712 723 726 727 729 728 727 728 727 727 728 729 730 726 729 751 769 764 756 763 769 769 769 767 766 772 782 789 789 788 788 778 769 773 773 782 803 801 787 803 829 837 838 841 842 844 847 850 851 851 853 856 857 858 859 859 858
745 745 749 751 749 748 746 742 742 740 737 737 737 736 737 737 733 729 729 728 723 722 725 725 720 715 710 705 707 711 710 709 714 722 727 728 728 728 727 727 728 728 729 732 731 737 760 779 775 764 762 766 771 776 778 777 778 782 790 792 793 799 792 775 768 769 778 798 803 798 811 828 835 838 842 844 846 848 852 853 853 855 856 858 859 859 859 859
744 744 748 748 747 747 745 741 740 739 736 735 737 737 736 738 735 728 724 722 720 721 726 727 721 713 706 705 708 714 716 714 714 721 727 729 728 728 728 727 728 728 729 733 736 742 758 776 782 780 780 781 784 785 781 781 785 789 795 795 794 798 791 774 771 779 781 783 794 807 816 823 831 838 841 845 848 850 854 855 855 856 857 859 860 860 860 860
744 744 744 743 743 744 742 737 737 738 736 734 736 738 735 734 735 729 722 718 717 722 725 723 718 712 706 703 707 715 719 719 723 725 727 729 728 728 730 730 729 730 730 735 740 742 755 777 785 784 789 791 788 786 783 784 790 795 796 796 795 794 788 783 792 800 792 779 788 808 819 823 832 840 842 846 849 852 856 856 855 857 858 860 861 860 860 860
745 744 742 740 741 740 738 735 736 738 738 736 736 736 734 733 731 726 723 719 716 719 723 720 715 713 709 703 705 714 717 719 726 727 725 727 729 729 731 733 733 732 731 737 744 745 757 781 786 781 789 795 791 789 788 788 792 797 799 800 798 797 795 795 799 801 797 794 800 812 823 831 839 843 846 850 852 854 857 856 857 859 860 861 861 861 861 862
746 745 743 742 741 739 738 737 737 738 739 738 735 733 733 732 726 721 722 721 715 715 721 721 716 713 711 707 707 715 720 718 719 722 723 725 728 729 730 732 733 733 734 740 746 746 757 780 785 778 786 797 796 792 790 790 795 802 806 806 802 802 802 802 803 804 805 811 817 822 830 839 845 847 849 852 854 855 857 858 860 861 862 862 862 862 863 863
747 746 745 744 740 738 739 740 740 740 739 738 736 733 730 726 721 719 720 719 717 718 720 718 713 712 713 713 715 722 725 719 715 719 722 724 726 728 730 732 732 733 736 743 748 747 755 776 785 776 782 798 801 797 796 795 794 800 810 813 810 809 810 812 814 812 811 818 824 826 832 841 846 849 852 854 856 858 859 861 862 863 864 864 863 864 865 864
747 745 744 744 741 740 740 741 742 742 737 734 733 730 726 722 719 718 717 716 718 720 721 718 713 714 720 722 724 726 724 722 723 726 727 726 728 731 733 735 734 734 738 745 753 755 756 769 778 773 781 799 801 798 800 793 784 793 812 820 818 815 816 818 819 816 814 817 819 822 831 842 847 849 854 857 859 860 861 863 865 866 866 865 865 866 866 865
Wind_Speed
11 12 13 12 12 12 13 13 13 13 13 13 13 12 12 12 12 12 12 12 12 13 13 14 14 15 15 15 15 16 17 18 19 18 14 18 16 13 14 11 5 5 11 11 15 14 9 6 7 8 7 3 0 2 2 1 2 2 2 2 3 3 3 4 4 3 0 4 4 5 6 4 1 4 3 3 7 5 2 2 3 1 3 3 4 6 15 19
12 12 13 13 13 13 13 13 13 13 13 13 13 12 12 12 12 12 12 12 13 13 13 13 13 14 15 15 15 15 18 18 17 19 23 21 17 18 19 16 11 8 13 15 18 16 10 5 6 7 4 2 0 1 2 1 2 2 2 2 4 4 2 2 2 2 1 4 7 7 3 3 3 4 2 2 4 2 3 0 3 1 2 4 6 11 16 18
13 13 13 13 13 13 13 13 13 13 13 13 13 13 12 12 12 12 13 13 12 13 13 13 13 14 14 15 15 15 16 14 9 12 14 11 9 15 20 21 18 12 13 15 18 16 12 12 12 8 3 2 1 1 3 2 3 2 2 4 4 3 3 3 3 5 4 4 7 8 4 4 3 1 1 3 5 3 3 2 2 3 5 6 7 11 15 17
13 13 13 13 13 13 13 13 13 13 13 12 12 12 12 12 12 12 13 13 12 13 13 13 13 13 14 14 14 14 12 7 4 2 1 4 5 6 9 18 20 16 13 14 15 13 12 15 11 5 3 2 1 2 4 3 2 2 3 4 2 2 4 4 5 6 4 3 3 5 6 5 3 1 2 6 5 2 4 5 5 5 8 11 9 12 15 16
13 14 13 13 13 13 13 13 13 13 13 13 12 12 12 13 12 13 13 13 13 12 13 12 12 13 13 13 12 11 7 3 1 2 4 5 10 14 8 10 18 18 16 16 14 11 13 14 7 2 2 3 3 3 4 4 3 3 3 3 3 2 4 4 3 4 1 2 2 4 6 5 3 2 3 5 3 2 1 5 8 6 7 12 12 13 14 14
13 13 13 13 13 14 15 15 14 13 13 13 13 12 12 12 12 13 12 13 13 12 12 12 12 13 13 13 9 6 3 3 2 3 1 8 14 16 12 6 15 19 21 18 15 13 12 10 7 5 3 3 6 6 3 4 3 3 2 2 5 4 5 4 1 3 2 1 4 3 3 3 4 3 1 3 3 1 4 4 6 3 6 11 12 13 14 15
13 13 13 13 14 15 16 16 15 14 13 13 13 13 12 12 12 12 12 12 12 12 12 11 12 12 12 11 4 1 1 6 8 5 8 18 21 18 12 4 15 24 24 18 14 11 9 10 9 5 5 4 5 7 4 4 4 4 3 2 5 5 6 5 4 5 2 5 5 2 2 1 3 1 1 4 4 4 6 3 3 5 9 11 11 12 13 14
14 13 13 13 14 15 15 15 14 14 14 13 13 13 12 13 12 12 12 12 12 11 11 10 11 11 11 8 1 0 1 10 16 13 16 20 19 16 7 6 19 25 23 21 17 12 10 11 9 5 6 4 4 7 4 5 5 5 6 3 3 3 5 4 6 6 4 6 5 3 3 2 4 1 1 4 4 5 2 3 5 7 9 10 11 12 12 11
13 14 14 14 14 15 15 15 14 13 13 13 13 13 13 13 12 12 12 12 11 11 10 10 9 9 10 6 0 1 5 10 13 13 15 15 12 8 5 10 22 25 19 20 19 14 10 10 9 6 5 4 5 7 6 6 5 6 8 4 5 5 3 3 6 5 2 3 2 4 3 3 3 2 2 4 5 3 2 5 6 7 8 8 9 11 12 11
13 13 14 15 15 15 15 15 14 13 13 13 13 13 13 13 13 12 12 12 11 10 10 9 8 7 7 3 2 3 5 7 7 6 7 7 5 4 8 13 25 24 17 16 17 15 9 7 7 4 3 4 5 5 6 7 3 5 7 5 8 6 3 3 5 4 2 3 5 5 3 3 2 3 2 2 2 2 5 6 6 6 6 7 7 9 10 10
13 14 14 15 15 16 15 14 14 14 13 13 14 13 13 13 13 12 12 12 10 10 9 8 7 5 4 2 3 5 3 3 2 4 9 8 3 6 10 17 27 24 18 13 14 16 8 7 8 2 2 4 5 4 4 6 3 4 6 4 6 4 4 5 6 5 2 3 4 5 3 1 1 2 1 3 5 5 5 6 6 6 5 6 6 6 8 9
13 14 15 15 16 15 15 15 13 14 14 14 14 14 14 14 14 13 13 12 11 10 8 7 6 3 2 1 6 12 6 1 0 3 7 9 3 3 6 18 26 22 22 14 11 16 8 10 12 2 1 5 6 4 2 4 3 3 4 3 3 2 4 5 4 2 1 1 3 5 4 0 0 1 2 3 7 6 5 6 6 7 6 5 6 5 6 7
14 15 15 16 16 15 16 17 14 13 14 13 13 14 15 14 14 14 13 12 11 9 8 7 5 4 2 2 10 16 13 12 11 11 9 4 3 3 3 14 21 16 17 11 9 15 8 10 12 2 2 5 4 2 1 3 1 3 3 2 2 1 3 2 0 1 2 1 2 5 3 0 1 2 6 2 6 7 6 7 7 7 6 5 6 6 6 7
15 15 16 16 16 15 16 17 15 13 13 14 15 14 15 15 15 15 14 12 10 9 8 5 4 4 2 7 14 13 12 17 19 21 22 15 8 6 4 12 18 11 8 5 5 14 10 6 6 3 2 2 2 2 1 2 0 3 4 1 1 2 2 1 1 2 3 1 0 4 3 1 3 8 10 5 4 6 5 7 7 6 6 6 6 7 7 7
15 16 16 15 15 15 14 15 15 14 14 15 16 16 16 17 16 16 14 12 10 8 6 3 5 3 1 10 14 9 8 14 20 25 23 15 9 7 7 12 16 11 7 4 4 9 11 4 3 4 2 0 2 2 1 1 1 1 3 3 1 2 1 2 1 2 1 2 2 2 2 3 5 10 11 5 2 4 4 4 6 6 6 6 6 7 7 6
16 16 16 15 14 15 14 13 14 14 14 14 16 17 18 19 18 17 15 12 9 5 3 3 6 5 2 6 4 3 6 9 14 17 17 17 13 9 10 12 11 10 7 4 2 3 7 4 1 2 1 1 3 3 2 2 1 1 2 3 3 3 2 1 2 1 1 2 1 1 0 3 4 10 11 8 4 4 6 5 6 7 6 6 6 6 7 7
17 16 16 15 14 14 13 12 13 13 14 15 16 18 20 18 16 15 11 8 5 6 6 3 5 5 4 6 3 3 5 7 9 7 9 18 17 12 13 8 5 7 5 3 3 3 4 4 1 1 1 1 2 4 5 5 4 1 1 1 1 3 2 1 2 1 1 2 2 2 4 4 5 9 11 11 7 4 7 6 5 6 6 6 6 7 8 9
16 16 15 14 13 13 13 12 12 13 14 15 18 20 18 11 6 2 6 9 8 6 4 2 4 4 5 6 4 2 3 4 6 5 6 14 17 16 14 8 7 10 7 3 3 3 3 2 1 2 3 2 3 6 6 5 5 5 4 3 2 2 1 1 2 1 2 1 2 5 7 6 8 9 10 11 9 4 3 5 4 5 6 6 6 7 7 8
16 16 15 14 13 12 12 12 12 13 15 14 17 16 7 3 6 8 10 10 7 4 3 5 7 2 2 3 2 5 8 7 4 5 8 14 17 15 12 10 10 10 7 5 4 4 4 3 3 5 6 5 5 7 6 5 6 7 5 4 4 4 2 1 1 1 2 4 5 6 7 7 9 11 11 10 10 10 9 7 5 4 4 5 6 7 7 8
15 15 14 13 12 12 12 11 11 13 14 13 15 11 0 4 3 4 5 6 7 3 1 5 10 4 4 1 2 10 8 3 2 3 12 18 19 15 9 7 7 5 6 7 6 4 4 5 6 7 7 7 6 6 5 4 5 6 5 4 4 4 3 2 0 2 1 4 6 6 10 10 10 11 11 9 11 14 14 12 10 8 6 4 5 7 8 8
15 15 14 12 12 12 12 12 12 12 12 13 12 7 1 2 1 2 3 7 12 11 7 7 11 9 8 4 4 10 7 2 2 1 12 18 18 14 6 5 7 5 4 5 5 4 4 7 7 6 6 7 6 6 6 5 5 6 5 4 2 2 3 1 2 2 0 3 3 5 12 12 10 11 10 10 13 15 14 13 12 12 11 9 9 9 7 5
15 15 13 11 12 12 12 13 13 11 12 12 9 5 5 4 3 3 1 5 9 14 15 10 9 12 15 12 6 5 4 4 5 2 10 16 13 10 5 6 8 6 4 4 5 5 6 7 6 6 6 6 5 4 6 6 5 4 3 3 3 2 1 1 3 3 1 4 4 5 11 10 8 10 11 12 13 12 13 14 13 13 14 12 12 12 10 9
15 14 12 11 12 12 12 12 13 14 15 12 9 7 4 4 3 4 3 3 5 8 12 12 11 12 13 11 8 5 3 5 4 4 10 15 8 7 9 8 8 6 6 8 8 7 6 6 7 7 8 8 6 4 6 6 3 2 3 3 3 1 2 3 2 2 3 4 6 9 10 7 6 9 11 12 12 11 13 15 14 13 14 13 13 13 13 12
14 13 11 11 11 11 11 12 14 15 13 10 12 12 6 2 3 8 2 3 5 4 8 11 10 10 10 8 8 11 7 5 5 3 10 15 6 6 9 8 8 7 6 9 10 9 5 5 8 8 8 9 7 6 7 6 3 2 3 4 3 2 3 2 2 1 4 5 4 8 8 5 6 8 9 10 10 12 13 14 15 14 13 13 14 14 14 13
13 12 11 10 11 10 11 13 12 8 6 7 10 7 3 2 5 4 1 2 4 3 4 7 6 8 11 9 10 11 5 5 7 5 8 14 9 7 6 5 5 7 8 8 9 8 4 4 10 10 7 8 8 7 7 7 5 2 4 6 5 5 4 2 4 4 4 3 3 1 3 3 5 8 9 7 9 12 12 14 14 13 13 13 13 13 14 14
12 12 10 10 9 9 11 9 4 3 5 8 7 1 2 5 7 2 2 2 3 2 4 6 5 9 12 11 10 9 4 5 9 10 9 14 11 6 6 4 1 5 8 7 6 4 3 5 8 10 9 9 8 6 6 7 6 3 4 6 4 4 4 3 4 3 2 4 2 2 1 3 3 5 8 7 10 13 12 14 13 12 12 12 12 12 12 13
12 11 9 9 8 8 7 4 3 5 6 4 4 4 3 10 6 4 3 1 3 2 5 2 3 10 12 11 14 11 4 2 5 9 10 14 11 3 6 7 2 4 5 4 4 2 5 7 5 7 9 9 7 5 6 7 6 3 3 7 7 6 6 5 4 3 1 2 3 1 1 4 4 3 6 5 9 12 12 12 12 11 12 12 12 12 12 13
12 10 8 8 8 7 8 8 8 9 7 4 3 4 9 12 1 5 2 1 2 2 6 2 3 8 7 10 17 9 2 3 6 7 11 16 11 2 6 10 8 8 5 5 7 2 5 9 8 9 8 6 6 4 6 8 4 2 3 7 6 5 5 5 3 2 1 1 4 2 1 3 3 2 3 3 7 10 11 11 12 12 13 12 13 13 12 12
10 8 8 8 9 9 11 12 11 12 10 5 5 10 13 6 3 3 1 2 2 1 4 5 5 6 5 10 14 6 1 3 3 5 9 12 8 1 4 7 9 11 5 4 6 3 2 7 10 11 8 6 5 4 9 11 4 2 6 6 4 3 3 2 2 2 1 3 5 4 1 2 3 1 1 3 5 7 8 9 10 12 12 12 12 12 12 11
9 8 8 8 9 9 9 12 17 17 12 7 10 14 8 2 4 2 2 2 1 1 3 3 3 6 10 12 10 6 3 2 2 6 6 6 4 1 2 3 5 8 4 2 5 2 1 2 4 6 5 5 5 4 6 8 6 7 8 6 4 4 2 1 1 1 3 4 2 2 3 2 3 1 0 2 3 4 6 7 9 11 12 12 12 11 12 11
9 9 9 9 9 9 6 8 10 7 4 7 13 11 1 4 1 2 4 2 2 2 2 2 3 8 13 13 9 7 3 1 5 10 8 5 5 3 4 5 3 5 4 3 4 1 2 4 3 3 3 4 6 5 1 1 5 6 5 4 5 3 1 2 2 1 5 4 2 2 3 2 2 2 3 4 5 7 7 8 9 10 11 11 10 10 10 10
10 10 10 11 12 12 11 7 3 3 2 12 13 4 3 3 2 3 2 1 1 2 3 2 4 7 11 10 9 10 7 4 6 11 11 9 8 6 6 6 5 6 6 6 5 1 1 3 2 1 2 5 7 6 2 1 3 4 4 6 7 4 3 4 3 3 4 2 2 1 3 1 4 5 7 8 8 10 9 9 10 10 10 10 10 10 9 10
10 11 13 14 14 17 20 17 13 11 13 15 8 0 2 2 3 4 4 1 0 2 3 2 1 5 10 7 7 10 8 5 7 9 10 9 10 6 2 3 5 5 4 5 5 4 4 2 2 2 2 4 8 8 5 4 5 6 6 8 8 5 6 5 3 3 2 2 1 3 3 3 5 5 8 10 10 11 11 10 10 10 10 9 9 9 10 10
11 13 16 18 18 20 24 23 22 18 13 8 2 2 3 3 2 3 3 2 1 3 4 4 5 4 11 7 7 11 6 3 7 9 9 9 9 7 3 3 6 3 3 5 4 6 7 4 5 8 3 5 10 8 7 8 6 5 3 4 5 4 4 4 3 3 3 3 2 3 1 4 4 5 9 11 11 12 11 10 10 10 9 8 8 9 10 11
13 15 18 19 19 21 22 22 20 14 6 2 2 4 5 4 1 1 1 2 1 3 6 6 4 5 10 4 6 12 4 2 8 7 7 9 8 7 6 6 6 3 4 6 2 3 5 3 4 4 2 8 11 6 6 10 6 3 1 2 3 3 3 3 1 1 3 3 2 3 2 2 2 4 10 11 10 12 11 9 10 9 8 8 8 9 10 9
14 15 15 15 15 16 15 14 14 11 6 2 4 5 4 2 1 1 1 2 2 3 8 5 2 5 8 4 8 11 2 2 9 6 5 7 6 6 7 5 6 5 5 5 2 2 3 2 1 2 3 6 8 6 5 5 5 3 3 4 2 2 5 5 2 2 1 3 2 1 2 4 3 4 9 10 10 10 9 10 10 9 9 9 9 9 9 8
13 12 10 12 13 12 8 8 13 13 6 2 5 5 2 2 2 1 1 2 1 2 5 2 1 2 5 5 8 12 5 4 6 4 4 6 3 5 6 4 5 7 6 3 1 2 4 3 1 2 5 3 0 6 5 1 3 5 5 6 3 3 3 2 3 2 1 3 2 0 4 7 5 4 7 10 9 8 8 9 10 9 9 9 8 8 9 9
10 8 8 11 11 9 6 11 17 12 4 2 5 5 2 2 3 2 2 2 1 2 3 1 2 1 3 4 6 11 9 6 5 4 4 4 1 4 7 4 5 8 8 5 2 2 3 3 2 1 4 3 1 5 5 2 1 2 5 6 2 2 3 1 2 3 4 3 2 3 5 6 5 3 5 9 9 8 7 8 9 10 10 8 8 8 9 9
7 5 4 4 4 5 11 17 16 7 2 4 5 4 3 3 4 2 4 2 2 1 1 2 2 3 2 2 5 7 6 6 7 5 3 3 1 3 4 3 5 8 7 5 3 1 0 2 2 1 0 3 2 3 5 4 2 3 6 5 0 1 3 2 2 2 4 4 3 4 4 5 4 2 4 8 10 9 7 8 9 9 9 8 8 8 8 9
4 3 1 3 1 9 17 17 8 3 3 4 3 3 3 3 2 1 5 3 2 2 1 3 3 4 5 1 5 5 3 5 7 4 2 3 2 1 3 2 5 7 3 2 2 1 0 1 2 2 0 3 3 1 3 5 4 4 7 6 2 2 2 2 2 2 2 5 4 4 3 4 2 1 2 8 10 7 8 9 9 8 8 8 8 8 8 8
3 2 1 2 6 15 18 10 3 3 3 2 1 3 3 3 2 3 2 3 3 2 3 6 7 6 6 3 3 4 3 4 4 2 2 3 2 1 3 3 5 6 4 2 2 1 0 0 2 3 1 2 1 1 2 2 1 3 5 5 4 4 4 5 3 1 1 3 4 4 3 4 2 3 2 8 8 7 9 10 9 9 9 9 8 8 8 8
2 1 2 5 13 16 9 2 1 2 1 1 2 3 2 2 1 3 3 3 4 4 5 7 10 9 7 7 3 3 4 3 2 1 2 3 2 1 2 2 3 6 5 3 1 1 1 2 4 4 2 2 2 2 2 1 2 4 4 2 2 3 4 5 5 4 3 2 3 3 2 3 2 4 5 8 8 8 9 9 10 9 9 8 7 8 8 8
1 1 2 9 15 8 1 1 2 1 2 1 2 3 1 1 0 1 3 3 2 4 5 5 8 9 8 7 4 3 5 3 2 2 2 3 2 1 1 3 3 5 4 2 2 2 1 2 4 4 2 2 2 2 2 3 3 5 5 3 1 0 1 2 3 4 5 3 3 3 2 3 2 4 6 7 9 10 8 8 10 9 8 8 7 7 8 8
1 1 3 9 10 1 3 2 2 2 3 2 2 1 1 0 1 3 6 5 4 4 3 4 6 7 6 6 4 4 4 2 2 2 2 2 2 0 0 4 5 3 2 2 3 3 1 1 2 5 5 3 4 4 3 3 3 3 3 3 3 2 3 3 3 4 4 3 3 4 3 3 4 6 7 7 9 10 8 8 9 8 8 7 7 7 7 8
2 1 3 4 5 3 2 1 0 2 3 1 0 1 1 1 3 6 8 8 8 7 4 4 5 4 5 4 3 3 2 3 2 2 1 1 2 2 2 3 3 1 1 3 5 4 3 2 1 3 5 5 4 4 2 2 2 3 3 4 5 3 2 3 4 4 4 3 2 2 3 5 6 8 8 7 9 9 8 8 9 9 8 8 7 7 7 8
1 2 2 2 3 3 2 2 1 1 2 1 1 1 1 2 3 6 9 10 11 9 3 3 6 5 5 3 5 3 3 3 3 3 2 2 2 1 2 4 4 6 9 10 8 5 5 4 5 4 4 3 3 2 1 1 3 3 3 4 5 3 2 1 3 3 4 6 3 1 7 12 11 9 9 8 8 8 7 7 8 9 8 8 7 7 7 7
1 1 2 2 2 2 2 3 2 2 1 2 2 1 3 5 5 4 7 6 5 4 2 2 5 4 4 5 6 3 3 4 5 5 3 1 3 2 3 5 6 7 10 8 4 3 5 4 7 11 10 7 6 6 5 6 7 6 5 5 6 3 1 2 3 2 5 6 3 4 12 16 12 10 10 9 8 8 7 7 8 8 8 7 7 7 8 8
1 0 1 0 1 2 1 2 2 1 1 3 2 2 2 5 5 4 3 2 3 5 3 3 4 2 1 3 5 3 3 4 4 3 3 1 3 3 3 5 5 3 5 4 3 3 6 4 4 10 13 10 9 9 10 12 12 11 10 9 8 7 6 6 4 2 1 1 4 12 16 14 11 11 10 9 8 8 7 8 9 9 8 7 7 7 8 9
0 1 1 1 1 1 1 1 3 3 1 1 1 2 2 4 7 5 2 1 1 2 2 0 3 5 5 3 5 5 4 4 2 1 2 2 2 1 3 4 4 3 3 4 3 2 4 5 6 10 13 12 10 9 10 13 14 14 14 12 11 11 12 12 10 7 8 9 12 17 17 11 9 9 10 10 9 8 8 8 9 9 8 7 7 8 9 9
1 1 1 1 1 1 2 1 4 4 1 1 2 2 2 4 6 3 1 1 1 2 3 3 3 7 9 9 8 5 2 3 6 4 3 3 3 1 1 2 2 3 3 3 2 2 3 5 6 6 9 9 9 10 11 13 16 16 14 12 11 11 12 12 11 10 12 13 15 18 16 10 7 8 10 10 8 8 9 9 10 8 7 7 8 9 9 9
3 3 2 2 1 1 1 1 2 2 0 1 2 2 2 3 3 1 1 1 3 4 1 3 8 10 10 11 11 5 2 1 6 5 3 3 3 2 1 1 1 2 3 3 2 3 3 6 5 2 5 5 5 9 10 11 14 15 13 12 11 9 8 8 7 6 7 13 16 14 11 8 7 9 10 9 9 9 10 10 9 7 7 8 9 8 8 9
4 4 3 2 1 1 1 1 2 1 1 2 3 3 2 3 4 1 2 2 4 5 0 1 7 10 8 9 8 5 3 5 7 6 5 7 8 7 5 5 4 3 3 3 2 2 4 8 6 2 5 5 4 2 1 2 5 7 7 7 7 6 8 8 8 8 7 11 11 8 7 9 10 9 9 9 10 10 9 8 7 7 7 8 9 8 8 8
Wind_Direction
324 325 325 326 327 326 324 324 325 325 326 323 325 326 326 327 327 327 327 327 328 327 328 330 331 329 329 330 329 327 325 323 317 309 271 257 270 261 258 260 254 188 185 171 158 146 123 131 129 136 139 111 43 147 158 147 122 179 155 159 196 195 207 194 197 186 66 328 318 341 351 327 352 104 135 88 74 86 112 330 306 341 29 47 54 102 133 141
326 327 326 324 324 324 323 323 321 321 323 323 323 324 325 325 325 326 325 325 326 325 328 329 329 328 329 330 328 324 323 322 313 292 272 271 277 265 260 254 248 214 181 170 165 155 140 148 145 141 132 113 54 106 173 184 168 181 124 190 214 190 211 202 202 205 259 304 318 323 329 310 310 132 160 171 123 128 148 147 304 260 116 96 98 125 138 147
329 328 326 323 322 321 321 321 321 320 319 320 320 321 323 323 323 324 323 324 325 325 326 327 329 328 328 330 325 321 321 321 305 278 281 291 282 265 258 248 243 223 196 184 173 170 168 163 155 143 118 118 107 144 166 168 186 185 156 216 220 200 246 231 224 237 239 282 311 317 317 318 312 163 244 171 154 183 190 185 201 201 174 145 133 143 149 153
328 328 326 324 322 322 323 319 317 319 318 319 319 320 320 320 322 321 321 323 324 324 324 326 329 327 328 329 319 317 319 306 268 244 47 52 17 342 266 241 232 216 200 187 174 175 167 152 148 137 123 129 93 151 167 178 184 168 191 223 205 154 254 234 220 243 247 252 281 311 318 328 351 298 222 167 153 189 227 223 207 205 175 159 156 158 159 161
326 327 328 328 326 326 326 319 315 316 316 319 319 318 318 319 320 319 320 320 323 323 323 326 327 328 328 325 318 318 314 279 274 133 110 53 5 1 339 241 220 204 185 176 166 152 144 139 136 115 120 142 144 157 182 190 161 165 199 239 219 168 252 256 231 242 231 188 248 307 311 326 338 287 193 183 177 134 230 232 218 221 167 159 163 163 166 172
323 325 327 327 326 325 321 315 317 318 314 313 315 316 314 317 317 317 318 318 321 320 322 325 326 329 326 326 327 321 274 261 344 136 136 337 332 343 345 258 203 186 177 170 153 143 136 137 153 159 157 145 163 176 176 171 178 204 194 242 236 217 243 275 304 227 186 262 278 299 304 339 323 320 104 261 279 17 327 271 217 207 135 149 160 167 176 182
322 323 323 325 326 324 318 308 308 313 314 311 310 311 311 314 315 315 316 315 318 317 321 323 325 328 326 331 333 7 338 267 271 249 298 313 313 323 329 248 183 177 175 162 147 152 143 151 170 157 156 147 176 194 162 145 185 225 211 230 240 223 237 260 281 256 244 271 266 271 298 295 262 289 72 268 294 335 311 271 172 125 128 147 162 175 187 189
323 323 322 325 325 324 322 313 305 304 309 310 307 310 310 310 311 312 313 313 314 315 318 319 325 327 327 335 328 55 265 257 270 284 302 304 308 313 307 180 174 175 174 167 157 156 146 158 169 150 172 172 179 189 157 148 173 215 220 233 250 228 237 252 271 273 267 264 255 245 260 190 208 212 131 250 315 342 314 138 126 129 140 156 171 183 192 196
324 324 323 324 323 323 321 316 308 300 303 307 306 308 308 308 309 310 310 310 311 312 314 316 323 322 321 334 43 261 241 256 285 303 303 297 306 299 238 174 175 174 170 171 162 154 159 171 173 171 184 163 172 177 170 189 186 204 210 217 249 250 269 276 274 276 267 264 234 238 257 123 162 165 168 261 317 344 132 126 133 148 158 169 180 189 195 199
323 323 322 322 321 319 316 312 309 306 306 307 305 305 305 306 305 306 307 306 308 308 309 312 316 316 314 314 185 237 255 277 304 328 335 318 309 230 204 183 174 171 164 164 163 165 173 172 167 173 154 137 169 159 169 197 166 180 197 217 243 259 304 278 269 270 278 261 219 234 283 84 144 185 185 252 272 181 143 131 148 167 183 189 189 192 198 206
322 321 321 320 318 316 313 309 307 308 309 307 305 303 302 303 302 303 302 301 302 303 306 307 311 313 301 293 195 221 263 328 347 44 39 17 322 196 198 184 173 171 162 158 177 178 162 148 154 150 155 154 163 147 179 196 142 164 178 205 237 263 274 245 262 270 277 262 205 208 250 64 101 202 174 139 163 174 155 150 169 190 204 208 206 198 203 212
320 319 320 318 316 316 314 312 309 307 308 306 303 301 301 301 300 299 298 299 298 297 301 298 302 295 263 260 232 232 239 282 199 44 44 40 32 195 199 182 174 173 167 164 188 181 159 162 167 149 153 154 148 152 200 179 141 160 167 205 220 265 254 228 258 263 212 248 163 177 220 319 210 224 32 110 160 158 164 175 182 201 215 220 224 219 214 215
319 318 318 316 316 317 312 309 309 306 305 305 304 302 300 298 297 296 295 295 293 292 295 292 283 255 230 230 243 244 248 256 264 272 264 289 325 281 249 183 176 178 175 170 181 178 169 177 182 167 147 163 144 142 140 128 136 152 152 237 229 242 238 203 340 172 184 223 167 192 209 143 238 322 8 9 177 161 170 194 198 207 215 219 228 231 228 224
320 319 316 314 315 315 308 306 311 309 305 306 304 301 299 297 295 292 291 289 287 287 283 276 245 217 196 251 263 265 255 256 260 257 253 256 256 245 239 184 181 186 176 136 151 181 184 168 172 154 157 186 126 144 111 69 28 152 146 196 236 212 208 65 39 177 178 131 199 226 217 66 21 3 360 344 214 193 192 203 206 210 212 216 228 233 238 236
320 320 315 313 314 312 306 307 313 310 306 303 300 302 301 297 293 289 288 283 277 275 267 231 206 190 257 271 275 277 244 246 251 247 247 244 217 203 203 183 187 198 181 123 103 182 198 176 145 164 170 231 134 164 162 83 47 101 170 171 136 202 213 17 95 181 184 77 36 257 201 102 41 7 359 1 266 246 258 245 227 230 229 225 234 240 247 256
316 316 313 311 310 307 304 305 309 309 309 306 303 304 300 296 293 287 280 272 264 244 223 197 194 190 276 278 276 266 224 226 243 247 243 229 208 189 178 169 181 196 190 182 102 147 189 182 150 164 132 142 172 157 136 157 140 38 219 172 147 189 196 47 112 113 358 117 78 344 108 110 31 358 6 20 355 271 270 272 250 252 255 248 257 263 265 273
313 312 309 308 306 305 305 307 310 312 313 309 307 307 304 303 296 283 266 243 217 183 179 168 174 192 254 275 268 250 237 226 237 255 235 218 208 179 159 145 150 160 154 177 163 112 148 170 183 140 123 129 166 166 169 187 178 148 208 136 141 193 184 159 130 65 53 166 186 80 73 68 20 2 15 19 5 279 258 276 271 261 260 261 270 280 283 283
309 307 305 306 306 307 309 312 314 316 315 306 306 308 309 318 314 251 162 157 143 146 176 172 168 195 248 266 271 267 300 286 252 247 210 195 192 177 156 138 126 134 132 131 153 164 154 165 210 161 164 165 175 191 186 175 161 156 166 150 136 171 188 173 140 44 20 116 161 105 87 59 30 20 22 18 20 24 299 306 304 276 264 262 272 283 287 290
305 305 305 307 307 308 308 312 313 313 315 310 313 315 312 56 77 102 128 147 142 145 197 189 183 206 305 241 272 328 313 297 264 222 177 168 175 166 140 130 128 133 147 149 158 188 166 139 186 185 183 177 180 193 180 160 157 156 163 157 147 154 172 215 156 334 30 70 63 86 92 60 36 26 23 24 32 39 28 14 3 344 301 271 273 278 287 302
306 305 306 307 307 307 305 311 313 309 312 316 325 330 301 134 106 115 137 191 216 232 336 183 198 250 326 213 3 353 331 275 265 200 172 167 164 151 130 124 125 136 158 157 158 179 178 172 185 185 176 171 176 183 159 148 147 132 130 133 140 155 162 205 124 17 62 82 54 77 86 61 44 34 25 32 42 40 36 31 27 25 19 354 326 308 307 313
305 304 304 304 306 307 304 309 311 306 306 311 321 328 257 231 220 147 182 226 239 247 264 222 205 246 271 253 9 14 4 303 326 221 176 171 160 155 160 142 143 162 164 150 136 139 188 192 186 171 165 164 170 168 132 125 136 128 132 130 138 179 169 153 66 13 318 110 97 97 83 64 53 48 34 38 48 44 40 39 39 38 38 32 18 7 355 348
303 303 302 303 306 305 303 302 304 303 299 300 299 279 265 242 140 66 330 252 248 233 241 240 219 253 260 259 288 355 351 281 298 299 168 168 172 171 163 149 160 161 145 148 134 146 191 196 184 164 148 124 117 145 133 129 143 136 135 140 154 177 186 117 62 1 359 107 150 123 85 74 65 58 49 47 51 51 49 49 48 46 46 41 34 30 29 33
301 301 299 302 304 302 301 298 297 299 296 292 268 238 233 179 149 359 325 266 278 221 220 227 219 240 249 256 255 215 224 233 255 291 168 169 184 173 155 156 165 151 153 176 169 165 187 194 179 156 141 126 113 146 139 125 141 142 150 168 157 148 193 156 92 352 24 81 155 132 97 83 72 65 58 53 56 57 56 55 53 50 48 44 41 40 38 40
300 300 299 302 302 301 303 301 296 293 290 278 253 241 234 208 315 329 302 233 284 230 207 208 206 226 232 233 200 181 203 209 210 258 177 174 170 150 159 155 154 159 173 183 177 169 169 162 152 143 153 150 136 151 152 144 163 179 184 187 163 176 217 139 119 163 62 66 154 134 109 79 49 56 57 53 58 58 55 55 52 48 46 43 42 41 42 44
299 298 299 300 300 303 306 305 298 291 288 267 258 258 249 300 334 323 242 255 269 242 210 190 190 223 212 192 168 168 191 208 212 227 178 178 168 141 156 148 156 178 172 167 171 173 163 135 142 147 166 159 141 158 175 169 167 188 213 210 189 180 198 111 123 153 112 126 206 178 128 102 45 53 57 51 59 59 55 55 52 48 45 43 41 36 40 45
296 294 296 297 298 306 310 305 287 299 303 268 250 199 82 1 351 267 220 293 259 212 161 162 184 195 177 165 161 152 165 213 213 210 191 185 179 148 148 147 158 178 160 151 167 177 143 142 154 157 163 162 153 165 189 179 167 186 204 197 177 161 180 156 145 163 144 152 171 316 209 136 89 58 52 52 67 63 58 57 53 51 48 45 44 37 35 37
292 289 292 295 296 305 304 287 284 301 294 256 213 190 303 344 345 223 213 286 259 177 142 155 202 177 169 170 163 153 173 177 167 194 199 185 181 166 161 162 145 155 149 148 176 179 134 142 152 153 157 167 170 172 188 181 168 178 179 164 158 168 193 186 171 189 185 115 102 2 269 132 126 67 46 66 80 67 61 59 53 51 48 45 44 38 35 35
285 286 290 290 289 284 272 275 288 279 254 232 210 240 311 333 320 198 228 204 238 116 135 174 184 161 152 163 164 163 186 138 138 179 189 182 182 161 164 174 165 155 157 178 180 152 141 164 165 158 164 182 182 164 167 171 174 190 156 152 158 173 185 180 187 188 127 176 159 147 237 141 126 45 48 85 84 70 63 61 56 51 46 43 41 36 33 32
279 284 284 283 283 270 266 270 265 256 254 257 278 304 322 324 172 185 274 185 230 91 129 140 150 149 127 154 178 194 136 156 175 150 160 180 192 147 154 171 159 148 152 200 182 139 177 192 172 161 172 189 181 155 165 175 184 137 128 116 100 84 85 126 194 167 132 224 184 148 252 174 120 4 72 88 73 69 64 62 59 53 47 42 38 33 30 27
279 281 280 281 278 268 269 266 257 259 266 273 304 320 325 174 171 199 192 206 290 51 120 148 159 155 145 151 186 214 177 166 145 120 132 169 175 78 95 108 129 142 133 197 176 140 63 165 161 173 179 175 159 138 170 176 145 126 123 105 94 83 62 88 77 99 187 217 170 88 306 248 146 205 143 86 74 76 75 68 59 51 45 40 35 30 27 25
280 279 276 271 268 269 275 271 262 254 253 299 322 327 266 163 226 208 179 217 300 43 90 168 146 146 157 158 171 199 201 104 138 144 145 155 150 126 132 129 123 140 143 174 179 145 69 124 153 205 171 135 126 116 117 140 132 138 128 125 134 113 109 147 100 206 212 205 108 56 296 268 156 163 142 125 100 81 74 71 65 55 45 37 33 28 24 25
278 274 271 266 265 262 252 247 222 149 284 316 329 333 177 174 213 218 225 289 278 356 28 123 148 156 169 166 158 174 178 147 156 157 151 160 165 157 162 166 156 155 170 179 170 167 172 163 181 237 174 154 139 128 114 110 166 174 144 155 168 158 167 182 180 199 206 186 74 327 281 35 87 120 133 128 106 86 78 75 72 65 54 41 31 27 23 23
277 274 271 265 260 255 250 249 250 258 290 314 328 279 192 179 190 220 250 306 15 317 344 16 306 178 173 173 159 168 169 152 167 164 150 158 166 163 167 166 154 153 171 170 160 171 191 237 253 188 186 178 160 153 157 164 184 183 167 174 179 168 170 176 173 182 185 128 78 310 283 119 108 122 122 116 105 94 86 81 77 71 64 52 37 31 28 24
279 275 273 271 265 260 258 258 259 264 285 309 304 197 204 192 217 229 237 334 10 271 283 325 328 188 173 179 160 161 161 150 168 162 150 157 167 170 166 170 166 125 114 157 164 178 184 219 205 179 175 174 173 176 163 153 166 175 167 179 180 171 168 163 159 166 151 121 85 345 312 134 135 130 115 112 107 99 93 87 84 77 68 61 47 38 33 26
288 283 282 279 270 265 263 258 255 250 247 270 194 196 207 199 276 286 258 346 356 282 300 304 301 188 175 182 163 167 171 145 162 157 156 163 165 167 163 174 182 142 136 166 172 175 182 214 197 167 156 170 174 178 145 142 155 180 155 154 181 175 132 108 90 100 113 112 70 25 49 90 108 123 116 112 109 106 104 96 88 79 70 63 52 43 36 28
297 295 291 279 269 270 268 250 230 207 189 203 187 200 225 215 270 317 44 346 339 329 325 305 228 167 171 163 164 180 211 111 159 158 158 164 160 165 165 168 176 166 156 160 158 155 163 184 172 132 172 185 175 156 147 157 153 148 183 178 165 102 108 118 116 38 77 142 105 37 116 118 125 138 127 119 112 110 106 96 86 76 69 61 51 46 37 27
297 297 285 271 275 281 270 211 180 174 180 221 198 203 236 235 242 196 125 354 7 18 351 334 177 170 178 159 163 180 173 118 162 170 150 159 162 167 168 168 172 176 174 160 178 212 180 155 70 169 180 204 187 127 111 37 135 142 180 170 119 72 80 111 129 107 143 144 109 126 158 153 159 161 140 130 121 114 105 97 90 73 63 57 49 46 38 29
295 290 270 268 279 275 233 171 156 160 184 212 202 213 222 229 242 164 127 6 15 69 30 321 289 309 180 159 160 174 167 147 166 162 147 168 203 164 165 167 176 186 192 185 179 217 198 147 69 266 169 112 52 137 120 50 30 131 156 147 129 162 167 150 136 155 159 127 117 150 158 182 188 180 164 149 135 128 111 91 83 67 56 52 44 38 33 28
286 281 281 296 291 229 177 157 151 159 214 195 199 216 209 240 259 175 113 43 346 9 38 247 276 309 270 191 156 166 163 155 159 147 155 192 208 169 179 167 175 195 202 191 167 136 227 172 138 325 303 116 125 176 163 149 73 75 133 137 303 198 160 158 122 152 156 136 143 150 166 210 196 194 202 159 139 138 120 91 81 69 58 52 41 34 28 25
278 271 338 36 250 174 156 150 154 185 204 192 203 223 231 264 274 90 92 88 316 307 259 270 287 294 298 283 154 160 128 136 150 139 162 182 124 171 227 205 173 185 185 147 160 136 50 208 133 98 252 177 158 204 195 161 128 140 153 148 134 88 108 132 84 46 141 143 151 152 175 202 162 11 200 143 130 129 116 104 95 78 65 53 42 34 26 23
289 261 106 96 160 156 149 151 180 190 186 202 218 229 254 270 289 357 25 162 208 257 243 265 274 273 293 296 166 150 104 118 143 126 136 171 161 184 214 209 175 162 135 120 170 174 153 158 122 117 134 148 111 352 280 228 155 149 160 161 147 125 139 155 146 90 75 123 151 155 167 168 84 12 98 121 116 108 101 103 98 81 70 58 44 38 31 24
263 186 90 148 159 155 155 172 166 171 191 192 219 229 244 253 284 334 302 209 209 239 232 253 262 254 258 259 227 135 114 104 111 129 139 155 174 193 175 177 158 148 145 146 161 169 143 94 97 97 92 104 89 40 48 112 101 88 89 126 139 131 157 174 178 163 113 100 130 122 133 147 74 34 79 96 95 93 92 96 97 86 74 64 51 43 37 31
204 80 71 151 158 156 270 202 138 213 224 219 265 251 203 196 66 326 270 237 217 227 223 242 245 233 233 237 220 139 126 89 53 125 125 111 137 223 212 179 156 138 144 143 133 162 162 90 95 104 99 110 123 102 63 67 82 77 59 37 21 54 140 151 156 147 137 140 143 135 141 150 115 78 84 89 89 86 82 90 95 90 79 69 58 49 42 36
236 351 82 154 170 254 324 176 161 214 218 244 265 231 104 71 220 234 248 237 214 227 258 257 232 220 229 222 185 152 141 103 60 97 102 107 139 61 252 178 169 141 145 181 163 167 178 34 114 127 123 114 127 145 135 82 58 70 62 15 356 63 110 109 103 118 141 163 171 164 155 139 131 116 101 96 93 85 80 85 88 89 84 71 60 53 45 38
260 84 72 152 205 293 317 193 201 190 203 246 244 91 57 244 236 233 238 241 234 229 244 272 264 246 237 209 143 115 105 108 111 109 94 114 117 24 45 144 170 141 100 107 105 108 96 49 4 150 146 148 145 146 145 121 92 72 57 16 18 52 104 118 126 148 167 166 179 179 139 127 131 127 116 107 101 94 90 89 85 83 82 71 61 54 46 41
277 104 95 174 223 274 276 255 260 202 188 155 99 39 224 246 276 235 225 242 244 226 202 283 285 261 224 167 106 74 48 69 101 122 141 134 110 16 28 98 118 112 102 88 76 89 99 65 37 57 92 112 112 87 21 101 116 99 59 21 20 5 317 65 139 168 155 145 156 169 137 142 147 139 128 119 108 104 102 95 88 82 76 70 64 59 51 44
314 90 157 176 201 244 270 266 247 242 203 148 140 311 231 241 280 247 219 230 223 188 139 273 267 243 183 139 109 69 35 55 71 102 122 95 109 101 37 77 99 103 99 81 43 84 107 74 51 61 65 66 78 83 75 82 91 88 73 41 25 5 336 88 111 115 130 143 159 149 143 146 150 142 131 125 116 110 105 94 88 83 78 75 69 63 57 46
351 356 198 227 214 199 232 248 218 213 125 139 148 294 244 239 259 250 236 229 150 142 163 248 288 343 86 138 121 105 89 76 56 86 122 95 117 125 70 62 56 56 92 73 18 80 98 82 83 84 75 68 74 82 84 88 87 76 67 56 42 43 62 81 77 31 30 132 139 146 146 140 137 133 125 120 117 112 106 96 89 86 82 79 72 65 57 46
5 275 245 314 289 226 274 234 135 105 76 140 191 255 249 257 262 251 247 283 134 142 142 306 342 18 33 57 110 123 127 117 105 195 154 118 109 116 100 90 53 27 73 77 52 70 85 92 115 103 80 64 66 80 87 91 89 73 61 57 59 67 75 83 86 77 76 89 114 130 128 115 113 120 113 110 110 107 102 91 84 83 80 75 69 63 57 50
346 328 320 345 302 266 322 358 116 113 99 279 263 251 219 244 262 267 260 215 105 60 67 100 80 57 49 53 83 107 160 160 149 164 171 135 121 140 137 130 104 61 57 69 68 33 75 131 150 115 80 61 64 85 90 91 89 76 59 51 57 70 73 76 82 81 84 98 113 117 112 103 107 112 107 108 106 100 93 84 80 80 75 72 68 61 57 54
308 279 277 300 297 320 359 24 93 106 122 250 252 258 222 231 264 308 21 41 80 75 59 105 89 70 49 48 57 49 320 90 101 109 128 121 114 123 91 73 150 115 66 63 65 27 80 142 176 151 89 79 82 96 95 94 91 76 54 39 40 54 67 64 64 76 109 125 125 120 117 122 127 117 107 102 99 93 86 81 82 80 74 74 71 62 57 55
314 286 286 284 284 351 25 75 69 63 228 207 216 240 257 274 292 316 98 37 49 82 82 18 86 83 64 53 39 338 330 77 82 85 99 95 81 75 73 70 68 83 107 104 69 32 106 137 163 150 99 122 173 146 71 136 121 83 39 18 28 69 89 74 56 60 102 132 135 133 132 129 127 121 109 103 99 91 83 81 84 82 78 76 70 63 58 54